LATEST WEATHER OBSERVATIONS RECORDED AT FUA'AMOTU AIRPORT
DATE TIME CLOUD WIND KT TEMP
(C)
DewPoint
(C)
RH(%) WEATHER MSL PRESS.
(MB)
27.06.2017 07:00AM CLOUDY CALM 0 18 17.9 99.37298 NIL 1016.2
27.06.2017 06:00AM CLOUDY CALM 0 19 17.9 93.34024 NIL 1015.7
27.06.2017 05:00AM CLOUDY CALM 0 18.1 17.9 98.75039 NIL 1015.8
27.06.2017 04:00AM CLOUDY CALM 0 18.1 17.9 98.75039 NIL 1016
27.06.2017 03:00AM FINE CALM 0 17.3 17.1 98.74257 MIST 1015.9
27.06.2017 02:00AM FINE CALM 0 17.3 17.1 98.74257 MIST 1015.9
27.06.2017 01:00AM FINE CALM 0 17.3 17.1 98.74257 NIL 1015.8
27.06.2017 12:00AM FINE CALM 0 17.8 17.1 95.67604 NIL 1016
26.06.2017 11:00PM FINE CALM 0 18.4 16.8 90.40091 NIL 1016
26.06.2017 10:00PM FINE CALM 0 19.4 17.8 90.4721 NIL 1016
26.06.2017 09:00PM PARTLY CLOUDY CALM 0 20.8 19.2 90.57047 NIL 1016
26.06.2017 09:00PM PARTLY CLOUDY CALM 0 20.8 19.2 90.57047 NIL 1016
26.06.2017 08:00PM CLOUDY CALM 0 21 19 88.35538 DRIZZLE 1015
26.06.2017 07:00PM CLOUDY CALM 0 22.3 19.5 84.18776 NIL 1015
26.06.2017 05:00PM CLOUDY CALM 0 23.6 19.4 77.33724 NIL 1015
26.06.2017 03:00PM PARTLY CLOUDY CALM 0 24 19 75 NIL 1014
26.06.2017 02:00PM PARTLY CLOUDY CALM 0 25 20 75 NIL 1014
26.06.2017 01:00PM PARTLY CLOUDY CALM 0 25 20 71 NIL 1015
26.06.2017 12:00PM PARTLY CLOUDY CALM 0 25 20 71 NIL 1016
26.06.2017 11:00AM PARTLY CLOUDY CALM 0 25 21 76 NIL 1016
26.06.2017 10:00AM PARTLY CLOUDY CALM 0 23 20 84 NIL 1016
26.06.2017 09:00AM FINE CALM 0 21 19 91 NIL 1015
26.06.2017 08:00AM PARTLY CLOUDY CALM 0 21 19 78 NIL 1015
26.06.2017 07:00AM CLOUDY CALM 0 22 19 78 NIL 1015